Annette Island, AK

11:37 AM AKST on December 15, 2017 (GMT -0900)
Annette Island

Weather History for PANT - February, 2013

Change the Weather History Date:

Sunday, February 10, 2013

  Actual Average Record
Temperature  
Mean Temperature 45 °F 38 °F  
Max Temperature 46 °F 43 °F 56 °F (1993)
Min Temperature 43 °F 33 °F 9 °F (1975)
Degree Days  
Heating Degree Days 20 27  
Month to date heating degree days 242 273  
Since 1 July heating degree days 4065 4052  
Cooling Degree Days 0    
Month to date cooling degree days 0  
Year to date cooling degree days 0  
Moisture  
Dew Point 41 °F    
Average Humidity 0    
Maximum Humidity 0    
Minimum Humidity 0    
Precipitation  
Precipitation 0.39 in 0.27 in 1.83 in (2005)
Month to date precipitation 3.74 2.83  
Year to date precipitation 11.94 13.56  
Snow  
Snow 0.00 in 0.20 in 3.10 in (2014)
Month to date snowfall 0.0 2.5  
Since 1 July snowfall 11.9 21.8  
Snow Depth 0.00 in    
Sea Level Pressure  
Sea Level Pressure 30.17 in    
Wind  
Wind Speed 8 mph (South)    
Max Wind Speed 17 mph    
Max Gust Speed 25 mph    
Visibility 8 miles    
Events Rain    
T = Trace of Precipitation, MM = Missing Value Source: NWS Daily Summary

Daily Weather History Graph

Daily Weather History Graph

Search for Another Location

Airport or City:

Trip Planner

Search our weather history database for the weather conditions in past years. The results will help you decide how hot, cold, wet, or windy it might be!

Date:

Astronomy

Feb. 10, 2013 Rise Set
Actual Time 7:18 AM AKST 4:43 PM AKST
Civil Twilight 6:40 AM AKST 5:21 PM AKST
Nautical Twilight 5:57 AM AKST 6:04 PM AKST
Astronomical Twilight 5:15 AM AKST 6:46 PM AKST
Moon 6:58 AM AKST (2/10) 6:00 PM AKST (2/10)
Length of Visible Light 10h 41m
Length of Day
9h 24m
New Moon, 0% of the Moon is Illuminated
Feb 10
New Moon
Feb 17
First Quarter
Feb 25
Full
Mar 4
Last Quarter
Mar 11
New

Hourly Weather History & Observations

Time (AKST) Temp. Windchill Dew Point Humidity Pressure Visibility Wind Dir Wind Speed Gust Speed Precip Events Conditions
12:18 AM 44.6 °F 40.7 °F 44.6 °F 100% 30.25 in 2.5 mi SSE 6.9 mph - 0.02 in Rain Light Rain
12:33 AM 44.6 °F 41.4 °F 44.6 °F 100% 30.26 in 3.0 mi SSE 5.8 mph - 0.03 in Rain Light Rain
12:53 AM 45.0 °F 40.1 °F 44.1 °F 97% 30.26 in 5.0 mi SSE 9.2 mph - 0.04 in Rain Light Rain
1:09 AM 44.6 °F 41.4 °F 42.8 °F 93% 30.25 in 10.0 mi South 5.8 mph - 0.00 in   Overcast
1:27 AM 44.6 °F 42.2 °F 42.8 °F 93% 30.25 in 10.0 mi Variable 4.6 mph - 0.00 in   Overcast
1:53 AM 44.1 °F 42.5 °F 42.1 °F 93% 30.25 in 10.0 mi SSE 3.5 mph - 0.00 in   Overcast
2:03 AM 44.6 °F 41.4 °F 41.0 °F 87% 30.25 in 10.0 mi SE 5.8 mph - N/A   Overcast
2:24 AM 44.6 °F 40.2 °F 42.8 °F 93% 30.23 in 10.0 mi SE 8.1 mph - N/A   Mostly Cloudy
3:53 AM 44.1 °F 37.4 °F 37.9 °F 79% 30.21 in 10.0 mi SE 13.8 mph - N/A   Overcast
4:50 AM 42.8 °F 36.2 °F 39.2 °F 87% 30.20 in 6.0 mi SE 12.7 mph - 0.00 in Rain Light Rain
4:53 AM 43.0 °F 37.2 °F 39.9 °F 89% 30.21 in 5.0 mi SE 10.4 mph - 0.00 in Rain Light Rain
5:21 AM 42.8 °F 35.8 °F 41.0 °F 93% 30.18 in 10.0 mi SE 13.8 mph - 0.01 in Rain Light Rain
5:45 AM 42.8 °F 36.2 °F 41.0 °F 93% 30.18 in 5.0 mi SE 12.7 mph 20.7 mph 0.02 in Rain Light Rain
5:51 AM 42.8 °F 35.8 °F 41.0 °F 93% 30.17 in 5.0 mi SE 13.8 mph - 0.02 in Rain Light Rain
5:53 AM 43.0 °F 36.4 °F 41.0 °F 93% 30.17 in 5.0 mi SE 12.7 mph - 0.02 in Rain Light Rain
6:34 AM 44.6 °F 38.1 °F 41.0 °F 87% 30.16 in 6.0 mi SE 13.8 mph 21.9 mph 0.01 in Rain Light Rain
6:53 AM 44.1 °F 37.7 °F 41.0 °F 89% 30.16 in 5.0 mi SSE 12.7 mph 21.9 mph 0.02 in Rain Light Rain
7:06 AM 44.6 °F 39.2 °F 42.8 °F 93% 30.16 in 5.0 mi SSE 10.4 mph 20.7 mph 0.02 in Rain Light Rain
7:53 AM 44.1 °F 39.5 °F 42.1 °F 93% 30.16 in 5.0 mi South 8.1 mph 17.3 mph 0.07 in Rain Light Rain
8:53 AM 44.1 °F 38.6 °F 42.1 °F 93% 30.15 in 7.0 mi South 10.4 mph 19.6 mph 0.09 in Rain Light Rain
9:44 AM 44.6 °F 40.2 °F 42.8 °F 93% 30.16 in 2.5 mi SW 8.1 mph - 0.05 in Rain Rain
9:53 AM 44.1 °F 39.0 °F 43.0 °F 96% 30.16 in 2.0 mi SSW 9.2 mph 19.6 mph 0.07 in Rain Rain
10:04 AM 44.6 °F 38.8 °F 42.8 °F 93% 30.15 in 5.0 mi South 11.5 mph 19.6 mph 0.02 in Rain Light Rain
10:53 AM 45.0 °F 40.1 °F 43.0 °F 93% 30.15 in 8.0 mi South 9.2 mph 23.0 mph 0.05 in Rain Light Rain
11:41 AM 44.6 °F 38.8 °F 44.6 °F 100% 30.15 in 5.0 mi South 11.5 mph 21.9 mph 0.01 in Rain Light Rain
11:53 AM 45.0 °F 40.6 °F 44.1 °F 97% 30.16 in 10.0 mi SSW 8.1 mph - 0.01 in   Overcast
12:13 PM 44.6 °F 39.7 °F 44.6 °F 100% 30.15 in 2.5 mi South 9.2 mph - 0.01 in Rain Light Rain
12:20 PM 44.6 °F 40.2 °F 44.6 °F 100% 30.15 in 5.0 mi South 8.1 mph 18.4 mph 0.01 in Rain Light Rain
12:53 PM 46.0 °F 41.0 °F 44.1 °F 93% 30.15 in 10.0 mi South 10.4 mph 16.1 mph 0.02 in   Overcast
1:46 PM 46.4 °F 42.4 °F 44.6 °F 93% 30.14 in 10.0 mi SSW 8.1 mph - N/A   Mostly Cloudy
1:53 PM 46.0 °F 44.8 °F 45.0 °F 96% 30.15 in 10.0 mi Variable 3.5 mph - N/A   Mostly Cloudy
2:53 PM 45.0 °F 40.6 °F 39.9 °F 82% 30.15 in 10.0 mi SSW 8.1 mph - N/A   Overcast
3:16 PM 46.4 °F 44.3 °F 39.2 °F 76% 30.15 in 10.0 mi SSW 4.6 mph - N/A   Overcast
3:53 PM 45.0 °F 41.2 °F 39.0 °F 80% 30.16 in 10.0 mi SSW 6.9 mph - N/A   Overcast
4:53 PM 43.0 °F 38.2 °F 39.0 °F 86% 30.17 in 10.0 mi WSW 8.1 mph - N/A   Mostly Cloudy
5:53 PM 41.0 °F - 37.9 °F 89% 30.17 in 10.0 mi Calm Calm - N/A   Clear
6:53 PM 42.1 °F 40.2 °F 37.9 °F 85% 30.16 in 10.0 mi SSW 3.5 mph - N/A   Mostly Cloudy
7:15 PM 42.8 °F 39.3 °F 37.4 °F 81% 30.15 in 10.0 mi SW 5.8 mph - N/A   Overcast
7:53 PM 42.1 °F - 37.9 °F 85% 30.14 in 10.0 mi Calm Calm - N/A   Overcast
8:53 PM 42.1 °F 39.2 °F 37.9 °F 85% 30.16 in 10.0 mi SSE 4.6 mph - N/A   Mostly Cloudy
9:53 PM 42.1 °F 40.2 °F 37.9 °F 85% 30.15 in 10.0 mi SW 3.5 mph - N/A   Overcast
10:39 PM 42.8 °F 41.1 °F 37.4 °F 81% 30.14 in 10.0 mi SSE 3.5 mph - N/A   Overcast
10:53 PM 42.1 °F 40.2 °F 37.9 °F 85% 30.14 in 10.0 mi SSW 3.5 mph - 0.00 in Rain Light Rain
11:42 PM 42.8 °F 41.1 °F 37.4 °F 81% 30.12 in 10.0 mi South 3.5 mph - 0.00 in   Overcast
11:53 PM 41.0 °F 39.0 °F 37.9 °F 89% 30.13 in 10.0 mi Variable 3.5 mph - 0.00 in   Overcast